"2010-10-22 00:00:00",268141,7.711,157.9,0.507,0.102,17.62,106.928,17.01,17.92,28.33,0,110.5,13.29,17.82,119.9
"2010-10-22 00:00:30",268142,7.77,157.7,0.433,0.048,17.55,106.928,17.01,17.92,28.32,0,110.5,13.29,17.82,119.7
"2010-10-22 00:01:00",268143,7.696,156.7,0.348,0.072,17.67,106.9252,17,17.9,28.35,0,110.5,13.29,17.81,118.7
"2010-10-22 00:01:30",268144,7.523,155.9,0.46,0.064,17.79,106.921,16.99,17.89,28.39,0,110.5,13.29,17.80,117.9
"2010-10-22 00:02:00",268145,7.375,156.2,0.558,0.054,17.66,106.9221,17,17.9,28.42,0,110.5,13.29,17.81,118.2
"2010-10-22 00:02:30",268146,7.439,155.8,0.677,0.068,17.71,106.9184,16.99,17.91,28.4,0,110.5,13.28,17.80,117.8
"2010-10-22 00:03:00",268147,7.442,155.6,0.633,0.151,17.71,106.9182,16.99,17.9,28.36,0,110.5,13.28,17.80,117.6
"2010-10-22 00:03:30",268148,7.547,154.3,1.401,0.093,17.76,106.9148,16.98,17.88,28.34,0,110.5,13.28,17.79,116.3
"2010-10-22 00:04:00",268149,7.728,155.5,0.879,0.076,17.69,106.9089,16.96,17.89,28.34,0,110.5,13.28,17.77,117.5
"2010-10-22 00:04:30",268150,7.722,156.6,0.543,0.082,17.68,106.9027,16.95,17.88,28.32,0,110.5,13.28,17.76,118.6
"2010-10-22 00:05:00",268151,7.792,156.4,0.875,0.076,17.6,106.898,16.93,17.87,28.28,0,110.5,13.28,17.74,118.4
"2010-10-22 00:05:30",268152,7.753,155.1,0.592,0.085,17.7,106.8972,16.93,17.87,28.3,0,110.6,13.28,17.74,117.1
"2010-10-22 00:06:00",268153,8.05,156.3,0.494,0.068,17.67,106.8963,16.93,17.87,28.28,0,110.6,13.28,17.74,118.3
"2010-10-22 00:06:30",268154,8.15,157.2,0.667,0.051,17.77,106.8945,16.92,17.87,28.23,0,110.6,13.28,17.74,119.2
"2010-10-22 00:07:00",268155,8.24,156.6,0.204,0.078,17.76,106.8972,16.93,17.85,28.23,0,110.6,13.28,17.74,118.6
"2010-10-22 00:07:30",268156,8.39,157.2,0.708,0.086,17.66,106.9005,16.94,17.85,28.24,0,110.6,13.29,17.75,119.2
"2010-10-22 00:08:00",268157,8.93,161.8,3.885,0.267,17.58,106.9008,16.94,17.85,28.32,0,110.5,13.29,17.75,123.8
"2010-10-22 00:08:30",268158,9.24,167.9,1.828,0.241,17.4,106.8807,16.89,17.83,29.02,0,110.6,13.29,17.70,129.9
"2010-10-22 00:09:00",268159,9.17,168.5,1.504,0.251,17.42,106.8677,16.86,17.79,29.15,0,110.5,13.29,17.67,130.5
"2010-10-22 00:09:30",268160,9.49,169.6,2.206,0.367,17.34,106.8372,16.78,17.75,29.33,0,110.6,13.29,17.59,131.6
"2010-10-22 00:10:00",268161,9.45,169.2,0.855,0.237,17.41,106.808,16.7,17.71,29.25,0,110.6,13.29,17.51,131.2
"2010-10-22 00:10:30",268162,9.18,172,2.543,0.288,17.36,106.79,16.66,17.65,29.25,0,110.6,13.29,17.47,134.0
"2010-10-22 00:11:00",268163,9.38,173.4,0.515,0.078,17.42,106.7762,16.62,17.63,29.22,0,110.5,13.29,17.43,135.4
"2010-10-22 00:11:30",268164,9.23,173.3,0.699,0.083,17.43,106.76,16.58,17.59,29.25,0,110.6,13.29,17.39,135.3
"2010-10-22 00:12:00",268165,9.14,173.8,0.61,0.061,17.43,106.7445,16.54,17.55,29.34,0,110.6,13.29,17.35,135.8
"2010-10-22 00:12:30",268166,8.97,172.9,0.541,0.07,17.5,106.7467,16.55,17.53,29.35,0,110.6,13.29,17.36,134.9
"2010-10-22 00:13:00",268167,9.02,174.6,0.552,0.082,17.44,106.7344,16.51,17.5,29.38,0,110.6,13.29,17.32,136.6
"2010-10-22 00:13:30",268168,9.05,175.5,0.632,0.116,17.42,106.7224,16.48,17.48,29.45,0,110.6,13.29,17.29,137.5
"2010-10-22 00:14:00",268169,9.19,176.6,0.322,0.068,17.39,106.7179,16.47,17.46,29.42,0,110.6,13.29,17.28,138.6
"2010-10-22 00:14:30",268170,9.43,176.6,0.271,0.078,17.35,106.7182,16.47,17.44,29.32,0,110.6,13.29,17.28,138.6
"2010-10-22 00:15:00",268171,9.43,176.3,0.706,0.078,17.37,106.7183,16.47,17.43,29.28,0,110.5,13.29,17.28,138.3
"2010-10-22 00:15:30",268172,9.51,175.5,0.288,0.1,17.37,106.7017,16.43,17.41,29.36,0,110.6,13.29,17.24,137.5
"2010-10-22 00:16:00",268173,9.32,174.7,0.478,0.082,17.42,106.689,16.4,17.4,29.37,0,110.6,13.29,17.21,136.7
"2010-10-22 00:16:30",268174,9.22,175.1,0.289,0.085,17.4,106.6865,16.39,17.38,29.39,0,110.6,13.29,17.20,137.1
"2010-10-22 00:17:00",268175,9.07,175.2,0.337,0.121,17.43,106.6883,16.4,17.36,29.4,0,110.6,13.29,17.21,137.2
"2010-10-22 00:17:30",268176,8.74,173.9,0.389,0.087,17.52,106.6889,16.4,17.35,29.46,0,110.5,13.29,17.21,135.9
"2010-10-22 00:18:00",268177,8.94,173.9,0.434,0.048,17.45,106.6919,16.41,17.34,29.45,0,110.5,13.29,17.21,135.9
"2010-10-22 00:18:30",268178,9.4,175,0.454,0.114,17.38,106.6922,16.41,17.31,29.54,0,110.5,13.3,17.22,137.0
"2010-10-22 00:19:00",268179,9.39,174.3,0.5,0.12,17.42,106.6929,16.41,17.32,29.61,0,110.5,13.29,17.22,136.3
"2010-10-22 00:19:30",268180,9.35,174.2,0.551,0.084,17.44,106.6895,16.4,17.29,29.62,0,110.5,13.29,17.21,136.2
"2010-10-22 00:20:00",268181,9.31,174,0.383,0.071,17.44,106.6793,16.37,17.3,29.61,0,110.5,13.29,17.18,136.0
"2010-10-22 00:20:30",268182,9.24,173.7,0.505,0.061,17.44,106.6638,16.33,17.28,29.64,0,110.5,13.29,17.14,135.7
"2010-10-22 00:21:00",268183,9.18,172.8,0.661,0.071,17.46,106.6605,16.32,17.28,29.63,0,110.5,13.29,17.13,134.8
"2010-10-22 00:21:30",268184,9.18,173.3,0.521,0.098,17.43,106.6599,16.32,17.28,29.68,0,110.5,13.29,17.13,135.3
"2010-10-22 00:22:00",268185,9.23,173.4,0.525,0.081,17.42,106.6599,16.32,17.25,29.7,0,110.5,13.29,17.13,135.4
"2010-10-22 00:22:30",268186,9.47,174.9,0.738,0.174,17.4,106.6599,16.32,17.25,29.74,0,110.5,13.29,17.13,136.9
"2010-10-22 00:23:00",268187,9.61,175.7,0.398,0.121,17.35,106.6599,16.32,17.25,29.81,0,110.5,13.29,17.13,137.7
"2010-10-22 00:23:30",268188,9.76,176.2,0.532,0.11,17.34,106.6599,16.32,17.23,29.82,0,110.5,13.29,17.13,138.2
"2010-10-22 00:24:00",268189,9.63,175.6,0.415,0.084,17.34,106.6515,16.3,17.23,29.83,0,110.5,13.29,17.11,137.6
"2010-10-22 00:24:30",268190,9.5,175.2,0.591,0.133,17.32,106.6331,16.25,17.21,29.86,0,110.5,13.29,17.06,137.2
"2010-10-22 00:25:00",268191,9.4,174.6,0.677,0.121,17.3,106.6267,16.24,17.2,29.86,0,110.5,13.3,17.05,136.6
"2010-10-22 00:25:30",268192,9.29,173.6,0.484,0.101,17.34,106.6261,16.24,17.19,29.8,0,110.5,13.3,17.05,135.6
"2010-10-22 00:26:00",268193,9.13,174.2,0.573,0.118,17.35,106.6261,16.24,17.18,29.81,0,110.5,13.3,17.05,136.2
"2010-10-22 00:26:30",268194,9.18,174.7,0.78,0.071,17.3,106.6261,16.24,17.17,29.89,0,110.5,13.3,17.05,136.7
"2010-10-22 00:27:00",268195,9.34,175.6,0.239,0.064,17.28,106.6236,16.23,17.15,29.96,0,110.5,13.3,17.04,137.6
"2010-10-22 00:27:30",268196,9.52,177.1,0.562,0.126,17.25,106.6148,16.21,17.15,30.08,0,110.5,13.3,17.02,139.1
"2010-10-22 00:28:00",268197,9.61,176.9,0.713,0.159,17.22,106.5974,16.16,17.12,30.11,0,110.5,13.3,16.97,138.9
"2010-10-22 00:28:30",268198,9.69,176.4,0.675,0.176,17.24,106.5923,16.15,17.13,30.12,0,110.5,13.3,16.96,138.4
"2010-10-22 00:29:00",268199,9.47,175.8,0.83,0.21,17.28,106.5923,16.15,17.1,30.16,0,110.5,13.3,16.96,137.8
"2010-10-22 00:29:30",268200,9.36,175.5,0.491,0.165,17.27,106.5923,16.15,17.11,30.18,0,110.5,13.3,16.96,137.5
"2010-10-22 00:30:00",268201,9.22,174.8,0.56,0.113,17.3,106.592,16.15,17.09,30.17,0,110.5,13.3,16.96,136.8
"2010-10-22 00:30:30",268202,9.12,173.1,0.941,0.07,17.36,106.5898,16.14,17.07,30.13,0,110.5,13.3,16.95,135.1
"2010-10-22 00:31:00",268203,9.03,171.7,0.992,0.13,17.37,106.5892,16.14,17.07,30.1,0,110.5,13.3,16.95,133.7
"2010-10-22 00:31:30",268204,9.12,173.1,0.751,0.082,17.3,106.5867,16.14,17.05,30.21,0,110.5,13.31,16.94,135.1
"2010-10-22 00:32:00",268205,9.36,172.8,0.269,0.071,17.27,106.5782,16.11,17.05,30.27,0,110.5,13.31,16.92,134.8
"2010-10-22 00:32:30",268206,9.38,172.3,0.532,0.052,17.29,106.5661,16.08,17.05,30.28,0,110.5,13.31,16.89,134.3
"2010-10-22 00:33:00",268207,9.39,172.2,0.522,0.077,17.27,106.5585,16.06,17.02,30.27,0,110.5,13.31,16.87,134.2
"2010-10-22 00:33:30",268208,9.45,172.7,0.659,0.087,17.26,106.5585,16.06,17.03,30.21,0,110.5,13.31,16.87,134.7
"2010-10-22 00:34:00",268209,9.47,171.8,0.02,0.056,17.32,106.5585,16.06,17,30.11,0,110.5,13.31,16.87,133.8
"2010-10-22 00:34:30",268210,9.45,171.8,0.02,0.063,17.27,106.5585,16.06,17,30.01,0,110.5,13.31,16.87,133.8
"2010-10-22 00:35:00",268211,9.36,172.4,0.939,0.088,17.19,106.5585,16.06,16.98,30,0,110.5,13.31,16.87,134.4
"2010-10-22 00:35:30",268212,9.09,173.5,0.531,0.055,17.15,106.552,16.05,16.96,30.21,0,110.5,13.31,16.86,135.5
"2010-10-22 00:36:00",268213,8.99,172.5,0.565,0.045,17.27,106.5289,15.99,16.95,30.03,0,110.5,13.3,16.80,134.5
"2010-10-22 00:36:30",268214,8.89,172.6,0.478,0.068,17.29,106.5247,15.98,16.96,29.94,0,110.5,13.3,16.78,134.6
"2010-10-22 00:37:00",268215,8.88,172.9,0.579,0.091,17.24,106.5247,15.98,16.93,29.98,0,110.5,13.3,16.78,134.9
"2010-10-22 00:37:30",268216,8.79,171.9,0.993,0.098,17.28,106.5247,15.98,16.92,30.03,0,110.5,13.3,16.78,133.9
"2010-10-22 00:38:00",268217,8.6,173,0.611,0.07,17.23,106.5247,15.98,16.92,29.97,0,110.5,13.3,16.78,135.0
"2010-10-22 00:38:30",268218,8.61,172.2,0.585,0.052,17.23,106.5247,15.98,16.91,30,0,110.5,13.3,16.78,134.2
"2010-10-22 00:39:00",268219,8.57,172.4,0.712,0.102,17.24,106.5247,15.98,16.91,30.04,0,110.5,13.3,16.78,134.4
"2010-10-22 00:39:30",268220,8.57,172.2,0.502,0.068,17.21,106.5247,15.98,16.91,30.05,0,110.5,13.3,16.78,134.2
"2010-10-22 00:40:00",268221,8.54,171.7,0.506,0.057,17.21,106.525,15.98,16.9,30.07,0,110.5,13.3,16.79,133.7
"2010-10-22 00:40:30",268222,8.61,172.3,0.766,0.065,17.2,106.5247,15.98,16.9,30.11,0,110.5,13.3,16.78,134.3
"2010-10-22 00:41:00",268223,8.49,172.4,0.703,0.109,17.19,106.5247,15.98,16.88,30.12,0,110.5,13.31,16.78,134.4
"2010-10-22 00:41:30",268224,8.38,172.6,0.453,0.056,17.22,106.5244,15.98,16.89,30.12,0,110.5,13.31,16.78,134.6
"2010-10-22 00:42:00",268225,8.18,172,0.425,0.067,17.22,106.5166,15.96,16.89,30.13,0,110.5,13.31,16.76,134.0
"2010-10-22 00:42:30",268226,8.23,172.9,0.792,0.078,17.2,106.5062,15.93,16.87,30.13,0,110.5,13.31,16.74,134.9
"2010-10-22 00:43:00",268227,8.06,173.2,0.537,0.106,17.16,106.4978,15.91,16.86,30.14,0,110.5,13.31,16.72,135.2
"2010-10-22 00:43:30",268228,8.08,173.2,1.008,0.089,17.15,106.4955,15.9,16.86,30.13,0,110.5,13.31,16.71,135.2
"2010-10-22 00:44:00",268229,8.29,174.6,0.571,0.138,17.12,106.496,15.9,16.85,30.14,0,110.5,13.31,16.71,136.6
"2010-10-22 00:44:30",268230,8.49,175.2,0.31,0.085,17.09,106.4978,15.91,16.83,30.14,0,110.5,13.31,16.72,137.2
"2010-10-22 00:45:00",268231,8.25,174.8,0.351,0.138,17.1,106.4975,15.91,16.83,30.16,0,110.5,13.31,16.71,136.8
"2010-10-22 00:45:30",268232,8.24,175,0.02,0.104,17.09,106.5005,15.92,16.82,30.15,0,110.5,13.31,16.72,137.0
"2010-10-22 00:46:00",268233,8.32,175,0.291,0.119,17.11,106.4976,15.91,16.81,30.19,0,110.5,13.31,16.72,137.0
"2010-10-22 00:46:30",268234,8.18,174.4,0.567,0.102,17.09,106.483,15.87,16.81,30.22,0,110.5,13.31,16.68,136.4
"2010-10-22 00:47:00",268235,8.34,174.7,0.712,0.202,17.08,106.4784,15.86,16.79,30.31,0,110.5,13.31,16.67,136.7
"2010-10-22 00:47:30",268236,8.46,174.9,0.553,0.118,17.1,106.4781,15.86,16.78,30.42,0,110.5,13.32,16.67,136.9
"2010-10-22 00:48:00",268237,8.78,175.7,0.641,0.161,17.02,106.479,15.86,16.77,30.51,0,110.5,13.32,16.67,137.7
"2010-10-22 00:48:30",268238,8.98,176,0.676,0.079,17.02,106.4796,15.86,16.76,30.63,0,110.5,13.32,16.67,138.0
"2010-10-22 00:49:00",268239,9.08,175.9,0.586,0.173,17.01,106.4768,15.85,16.74,30.68,0,110.5,13.32,16.66,137.9
"2010-10-22 00:49:30",268240,9.17,176.3,0.519,0.092,16.99,106.4585,15.81,16.73,30.84,0,110.5,13.31,16.61,138.3
"2010-10-22 00:50:00",268241,9.17,176.2,0.534,0.087,16.98,106.451,15.79,16.74,30.91,0,110.5,13.32,16.60,138.2
"2010-10-22 00:50:30",268242,9.07,175.7,0.309,0.087,16.99,106.4491,15.78,16.7,30.93,0,110.5,13.32,16.59,137.7
"2010-10-22 00:51:00",268243,8.98,175.5,0.312,0.054,17.02,106.4505,15.79,16.71,30.92,0,110.5,13.32,16.59,137.5
"2010-10-22 00:51:30",268244,8.87,174.9,0.407,0.084,17,106.4511,15.79,16.7,30.99,0,110.5,13.32,16.60,136.9
"2010-10-22 00:52:00",268245,8.72,174.2,0.455,0.028,17.06,106.4489,15.78,16.69,31.08,0,110.5,13.32,16.59,136.2
"2010-10-22 00:52:30",268246,8.63,173.8,0.185,0.055,17.04,106.4444,15.77,16.68,31.18,0,110.5,13.31,16.58,135.8
"2010-10-22 00:53:00",268247,8.55,173.5,0.476,0.043,17.07,106.436,15.75,16.65,31.09,0,110.5,13.31,16.56,135.5
"2010-10-22 00:53:30",268248,8.5,172.4,0.536,0.033,17.08,106.4265,15.73,16.66,31.1,0,110.5,13.31,16.53,134.4
"2010-10-22 00:54:00",268249,8.46,171.9,0.199,0.045,17.07,106.423,15.72,16.65,31.12,0,110.5,13.31,16.52,133.9
"2010-10-22 00:54:30",268250,8.56,171.8,0.054,0.06,17.08,106.4236,15.72,16.64,31.12,0,110.5,13.31,16.52,133.8
"2010-10-22 00:55:00",268251,8.61,171.8,0.048,0.042,17.06,106.4245,15.72,16.62,31.24,0,110.5,13.31,16.53,133.8
"2010-10-22 00:55:30",268252,8.65,171.8,0.274,0.039,17.05,106.4239,15.72,16.62,31.34,0,110.5,13.31,16.53,133.8
"2010-10-22 00:56:00",268253,8.68,171.2,0.523,0.049,17.08,106.4248,15.72,16.6,31.44,0,110.5,13.31,16.53,133.2
"2010-10-22 00:56:30",268254,8.82,170.5,0.515,0.059,17.03,106.4251,15.72,16.6,31.65,0,110.5,13.31,16.53,132.5
"2010-10-22 00:57:00",268255,8.98,170.2,0.534,0.048,17.07,106.4251,15.72,16.6,31.99,0,110.5,13.31,16.53,132.2
"2010-10-22 00:57:30",268256,9.12,169.7,0.383,0.088,17.06,106.4217,15.71,16.59,32.25,0,110.5,13.31,16.52,131.7
"2010-10-22 00:58:00",268257,9.23,169,0.183,0.041,17.08,106.4029,15.66,16.57,32.42,0,110.5,13.32,16.47,131.0
"2010-10-22 00:58:30",268258,9.29,168.4,0.576,0.041,17.03,106.3916,15.64,16.54,32.48,0,110.5,13.32,16.44,130.4
"2010-10-22 00:59:00",268259,9.3,167.3,0.498,0.053,17.02,106.3916,15.64,16.54,32.44,0,110.5,13.32,16.44,129.3
"2010-10-22 00:59:30",268260,9.23,167.1,0.375,0.047,17.02,106.3916,15.64,16.53,32.31,0,110.5,13.32,16.44,129.1
"2010-10-22 01:00:00",268261,9.16,167.7,0.397,0.048,17.1,106.3916,15.64,16.54,32.25,0,110.5,13.32,16.44,129.7
"2010-10-22 01:00:30",268262,9.1,168.4,0.563,0.044,17.11,106.3916,15.64,16.51,32.32,0,110.5,13.32,16.44,130.4
"2010-10-22 01:01:00",268263,9.11,169.6,0.224,0.035,17.04,106.3916,15.64,16.52,32.52,0,110.5,13.32,16.44,131.6
"2010-10-22 01:01:30",268264,9.12,169.7,0.034,0.045,17.02,106.3916,15.64,16.51,32.64,0,110.5,13.32,16.44,131.7
"2010-10-22 01:02:00",268265,9.07,169.4,0.374,0.04,17.07,106.3885,15.63,16.51,32.6,0,110.5,13.32,16.43,131.4
"2010-10-22 01:02:30",268266,9.1,169.6,0.585,0.044,17.07,106.3815,15.61,16.49,32.56,0,110.5,13.32,16.42,131.6
"2010-10-22 01:03:00",268267,9.13,171.3,0.767,0.069,17,106.364,15.57,16.48,32.69,0,110.5,13.32,16.37,133.3
"2010-10-22 01:03:30",268268,9.08,172.5,0.551,0.077,16.95,106.3578,15.55,16.47,32.8,0,110.5,13.32,16.36,134.5
"2010-10-22 01:04:00",268269,9.15,173.9,0.762,0.11,16.92,106.3578,15.55,16.47,32.84,0,110.5,13.32,16.36,135.9
"2010-10-22 01:04:30",268270,9.15,174.4,0.578,0.081,16.88,106.3578,15.55,16.46,32.91,0,110.5,13.32,16.36,136.4
"2010-10-22 01:05:00",268271,9.11,173.8,0.319,0.049,16.93,106.3578,15.55,16.46,32.92,0,110.5,13.32,16.36,135.8
"2010-10-22 01:05:30",268272,9.18,173.6,0.392,0.056,16.92,106.3578,15.55,16.45,32.96,0,110.5,13.32,16.36,135.6
"2010-10-22 01:06:00",268273,9.28,174.4,0.525,0.05,16.91,106.3578,15.55,16.45,33.02,0,110.5,13.32,16.36,136.4
"2010-10-22 01:06:30",268274,9.29,174.7,0.436,0.09,16.89,106.3561,15.55,16.44,33.08,0,110.5,13.32,16.35,136.7
"2010-10-22 01:07:00",268275,9.16,174.3,0.532,0.051,16.93,106.3479,15.52,16.43,33.08,0,110.5,13.32,16.33,136.3
"2010-10-22 01:07:30",268276,9.1,174.2,0.626,0.067,16.9,106.3383,15.5,16.44,33.14,0,110.5,13.32,16.31,136.2
"2010-10-22 01:08:00",268277,9.14,174.1,0.449,0.062,16.93,106.3327,15.49,16.43,33.18,0,110.5,13.32,16.29,136.1
"2010-10-22 01:08:30",268278,9.21,174.8,0.403,0.092,16.89,106.3288,15.48,16.43,33.23,0,110.5,13.32,16.28,136.8
"2010-10-22 01:09:00",268279,9.13,174.6,0.496,0.075,16.91,106.3242,15.46,16.42,33.28,0,110.5,13.32,16.27,136.6
"2010-10-22 01:09:30",268280,9.04,173,0.651,0.118,16.94,106.3245,15.46,16.4,33.26,0,110.5,13.32,16.27,135.0
"2010-10-22 01:10:00",268281,8.9,173.3,0.724,0.125,16.93,106.324,15.46,16.41,33.26,0,110.5,13.32,16.27,135.3
"2010-10-22 01:10:30",268282,8.84,173.7,0.777,0.132,16.95,106.324,15.46,16.4,33.27,0,110.5,13.32,16.27,135.7
"2010-10-22 01:11:00",268283,8.7,173.1,0.738,0.062,16.97,106.324,15.46,16.39,33.31,0,110.5,13.32,16.27,135.1
"2010-10-22 01:11:30",268284,8.78,172,0.857,0.106,16.99,106.324,15.46,16.39,33.32,0,110.5,13.32,16.27,134.0
"2010-10-22 01:12:00",268285,8.58,171.7,0.827,0.068,16.99,106.324,15.46,16.39,33.29,0,110.5,13.32,16.27,133.7
"2010-10-22 01:12:30",268286,8.62,171.5,0.639,0.048,17.03,106.324,15.46,16.38,33.29,0,110.5,13.32,16.27,133.5
"2010-10-22 01:13:00",268287,8.57,171.9,0.738,0.065,16.99,106.324,15.46,16.38,33.32,0,110.5,13.32,16.27,133.9
"2010-10-22 01:13:30",268288,8.43,172.3,0.709,0.086,16.97,106.324,15.46,16.36,33.36,0,110.5,13.32,16.27,134.3
"2010-10-22 01:14:00",268289,8.43,171.6,0.884,0.116,16.97,106.324,15.46,16.37,33.36,0,110.5,13.32,16.27,133.6
"2010-10-22 01:14:30",268290,8.47,171,0.685,0.069,17.02,106.324,15.46,16.36,33.39,0,110.5,13.32,16.27,133.0
"2010-10-22 01:15:00",268291,8.35,171.6,0.583,0.079,16.94,106.324,15.46,16.36,33.39,0,110.5,13.32,16.27,133.6
"2010-10-22 01:15:30",268292,8.38,172,0.615,0.055,16.95,106.324,15.46,16.35,33.38,0,110.5,13.32,16.27,134.0
"2010-10-22 01:16:00",268293,8.39,172,0.922,0.09,16.97,106.324,15.46,16.36,33.39,0,110.5,13.33,16.27,134.0
"2010-10-22 01:16:30",268294,8.42,173.7,0.501,0.08,16.94,106.324,15.46,16.36,33.41,0,110.5,13.33,16.27,135.7
"2010-10-22 01:17:00",268295,8.57,171.9,0.637,0.123,17.01,106.324,15.46,16.36,33.4,0,110.5,13.33,16.27,133.9
"2010-10-22 01:17:30",268296,8.41,172.9,1.08,0.152,16.98,106.324,15.46,16.36,33.42,0,110.5,13.33,16.27,134.9
"2010-10-22 01:18:00",268297,8.35,174.1,1.018,0.187,16.94,106.324,15.46,16.36,33.47,0,110.5,13.33,16.27,136.1
"2010-10-22 01:18:30",268298,8.35,173.5,0.78,0.095,16.95,106.324,15.46,16.35,33.45,0,110.5,13.33,16.27,135.5
"2010-10-22 01:19:00",268299,8.44,173.1,1.169,0.117,16.94,106.324,15.46,16.37,33.45,0,110.5,13.33,16.27,135.1
"2010-10-22 01:19:30",268300,8.21,173.4,0.912,0.088,16.92,106.324,15.46,16.37,33.46,0,110.5,13.33,16.27,135.4
"2010-10-22 01:20:00",268301,8.48,175.4,0.661,0.221,16.87,106.324,15.46,16.38,33.43,0,110.5,13.33,16.27,137.4
"2010-10-22 01:20:30",268302,8.6,176.2,0.527,0.114,16.84,106.324,15.46,16.37,33.41,0,110.5,13.33,16.27,138.2
"2010-10-22 01:21:00",268303,8.76,176.7,0.478,0.075,16.85,106.324,15.46,16.37,33.38,0,110.5,13.33,16.27,138.7
"2010-10-22 01:21:30",268304,8.75,176.1,0.732,0.111,16.82,106.324,15.46,16.36,33.43,0,110.5,13.33,16.27,138.1
"2010-10-22 01:22:00",268305,8.82,176.6,0.542,0.081,16.85,106.324,15.46,16.37,33.46,0,110.5,13.33,16.27,138.6
"2010-10-22 01:22:30",268306,8.48,175.5,0.478,0.095,16.85,106.324,15.46,16.35,33.5,0,110.5,13.33,16.27,137.5
"2010-10-22 01:23:00",268307,8.68,176.4,0.564,0.115,16.83,106.324,15.46,16.35,33.5,0,110.5,13.33,16.27,138.4
"2010-10-22 01:23:30",268308,8.65,175.5,0.435,0.076,16.83,106.324,15.46,16.34,33.5,0,110.5,13.33,16.27,137.5
"2010-10-22 01:24:00",268309,8.65,175.7,0.737,0.129,16.85,106.324,15.46,16.34,33.52,0,110.5,13.33,16.27,137.7
"2010-10-22 01:24:30",268310,8.61,174.8,0.366,0.044,16.82,106.3212,15.46,16.34,33.68,0,110.5,13.33,16.26,136.8
"2010-10-22 01:25:00",268311,8.6,173.9,0.323,0.053,16.84,106.3082,15.42,16.33,33.63,0,110.5,13.33,16.23,135.9
"2010-10-22 01:25:30",268312,8.66,174.3,0.531,0.069,16.83,106.293,15.38,16.33,33.61,0,110.5,13.33,16.19,136.3
"2010-10-22 01:26:00",268313,8.82,175.3,0.389,0.103,16.79,106.2902,15.38,16.31,33.76,0,110.5,13.32,16.18,137.3
"2010-10-22 01:26:30",268314,9.03,176.6,0.357,0.088,16.78,106.2902,15.38,16.32,33.69,0,110.5,13.32,16.18,138.6
"2010-10-22 01:27:00",268315,9.2,177.5,0.508,0.081,16.77,106.2902,15.38,16.31,33.85,0,110.5,13.32,16.18,139.5
"2010-10-22 01:27:30",268316,9.25,177.5,0.479,0.069,16.8,106.2902,15.38,16.31,34,0,110.5,13.32,16.18,139.5
"2010-10-22 01:28:00",268317,9.27,177.6,0.472,0.054,16.81,106.2902,15.38,16.29,34.06,0,110.5,13.32,16.18,139.6
"2010-10-22 01:28:30",268318,9.3,177.3,0.537,0.075,16.79,106.2882,15.37,16.28,34.08,0,110.5,13.32,16.18,139.3
"2010-10-22 01:29:00",268319,9.42,177.7,0.334,0.068,16.79,106.2837,15.36,16.28,34.16,0,110.5,13.32,16.17,139.7
"2010-10-22 01:29:30",268320,9.33,177.8,0.054,0.086,16.81,106.2693,15.32,16.27,34.15,0,110.5,13.32,16.13,139.8
"2010-10-22 01:30:00",268321,9.26,177.8,0.267,0.066,16.81,106.2642,15.31,16.26,34.16,0,110.5,13.32,16.12,139.8
"2010-10-22 01:30:30",268322,9.26,177.3,0.53,0.083,16.8,106.2625,15.31,16.25,34.19,0,110.5,13.32,16.11,139.3
"2010-10-22 01:31:00",268323,9.11,177.5,0.497,0.072,16.82,106.2631,15.31,16.26,34.12,0,110.5,13.33,16.11,139.5
"2010-10-22 01:31:30",268324,9.17,177.7,0.274,0.077,16.82,106.2623,15.3,16.26,34,0,110.5,13.33,16.11,139.7
"2010-10-22 01:32:00",268325,9.13,177,0.5,0.085,16.84,106.2639,15.31,16.26,33.87,0,110.5,13.33,16.11,139.0
"2010-10-22 01:32:30",268326,9,176.7,0,0.069,16.86,106.2665,15.32,16.26,33.83,0,110.5,13.33,16.12,138.7
"2010-10-22 01:33:00",268327,8.81,176.2,0.527,0.094,16.86,106.2735,15.33,16.26,33.73,0,110.5,13.33,16.14,138.2
"2010-10-22 01:33:30",268328,8.81,176.1,0.486,0.118,16.84,106.2851,15.36,16.27,33.92,0,110.5,13.33,16.17,138.1
"2010-10-22 01:34:00",268329,8.89,176.1,0.522,0.097,16.84,106.289,15.37,16.27,34.2,0,110.5,13.33,16.18,138.1
"2010-10-22 01:34:30",268330,8.79,175.9,0.385,0.12,16.85,106.2899,15.38,16.26,34.07,0,110.5,13.33,16.18,137.9
"2010-10-22 01:35:00",268331,8.64,175.9,0.392,0.079,16.84,106.2899,15.38,16.27,33.95,0,110.5,13.33,16.18,137.9
"2010-10-22 01:35:30",268332,8.76,176.2,0.523,0.075,16.82,106.2902,15.38,16.26,34.42,0,110.5,13.33,16.18,138.2
"2010-10-22 01:36:00",268333,8.75,175.8,0.269,0.067,16.82,106.2902,15.38,16.26,34.6,0,110.5,13.33,16.18,137.8
"2010-10-22 01:36:30",268334,8.66,175.6,0.192,0.074,16.79,106.2865,15.37,16.26,34.62,0,110.5,13.33,16.17,137.6
"2010-10-22 01:37:00",268335,8.77,176.5,0.523,0.085,16.82,106.2835,15.36,16.26,34.64,0,110.5,13.33,16.16,138.5
"2010-10-22 01:37:30",268336,8.84,177.1,0.514,0.074,16.82,106.2765,15.34,16.26,34.72,0,110.5,13.33,16.15,139.1
"2010-10-22 01:38:00",268337,8.91,177.7,0.278,0.099,16.75,106.2694,15.32,16.25,34.85,0,110.5,13.33,16.13,139.7
"2010-10-22 01:38:30",268338,9.01,177.4,0.578,0.071,16.73,106.2667,15.32,16.25,35.04,0,110.5,13.33,16.12,139.4
"2010-10-22 01:39:00",268339,9.07,177.1,0.523,0.063,16.72,106.2595,15.3,16.26,35.15,0,110.5,13.33,16.10,139.1
"2010-10-22 01:39:30",268340,9.15,177.4,0.501,0.072,16.75,106.259,15.3,16.25,35.2,0,110.5,13.33,16.10,139.4
"2010-10-22 01:40:00",268341,9.23,176.6,0.312,0.094,16.71,106.2596,15.3,16.24,35.48,0,110.5,13.33,16.10,138.6
"2010-10-22 01:40:30",268342,9.14,175.7,0.181,0.07,16.71,106.2593,15.3,16.24,35.52,0,110.5,13.33,16.10,137.7
"2010-10-22 01:41:00",268343,9.11,175.6,0.194,0.079,16.74,106.259,15.3,16.24,35.57,0,110.5,13.33,16.10,137.6
"2010-10-22 01:41:30",268344,9.21,176.1,0.512,0.099,16.76,106.254,15.28,16.24,35.64,0,110.5,13.33,16.09,138.1
"2010-10-22 01:42:00",268345,9.06,176.3,0.503,0.083,16.78,106.2481,15.27,16.22,35.63,0,110.5,13.33,16.07,138.3
"2010-10-22 01:42:30",268346,9.01,176.6,0.475,0.069,16.76,106.2381,15.24,16.21,35.69,0,110.5,13.33,16.05,138.6
"2010-10-22 01:43:00",268347,8.99,177.8,0.761,0.117,16.72,106.2322,15.23,16.21,35.72,0,110.5,13.33,16.03,139.8
"2010-10-22 01:43:30",268348,9.03,179.6,0.465,0.083,16.74,106.2257,15.21,16.2,35.69,0,110.5,13.33,16.02,141.6
"2010-10-22 01:44:00",268349,8.83,180,0.26,0.068,16.76,106.2255,15.21,16.18,35.62,0,110.5,13.33,16.02,142.0
"2010-10-22 01:44:30",268350,8.87,181.4,0.94,0.069,16.74,106.2282,15.22,16.18,35.65,0,110.5,13.32,16.02,143.4
"2010-10-22 01:45:00",268351,9.11,181.8,0.592,0.163,16.66,106.2252,15.21,16.16,35.73,0,110.5,13.33,16.01,143.8
"2010-10-22 01:45:30",268352,8.63,186.1,1.956,0.22,16.77,106.2273,15.22,16.15,35.65,0,110.5,13.33,16.02,148.1
"2010-10-22 01:46:00",268353,8.46,187.7,0.503,0.098,16.84,106.2276,15.22,16.14,35.64,0,110.5,13.33,16.02,149.7
"2010-10-22 01:46:30",268354,8.36,187.7,0.452,0.097,16.83,106.2261,15.21,16.13,35.67,0,110.5,13.33,16.02,149.7
"2010-10-22 01:47:00",268355,8.35,187.2,0.589,0.092,16.81,106.227,15.21,16.12,35.63,0,110.5,13.33,16.02,149.2
"2010-10-22 01:47:30",268356,8.21,187,0.593,0.073,16.79,106.2214,15.2,16.11,35.64,0,110.5,13.33,16.01,149.0
"2010-10-22 01:48:00",268357,8.25,187.8,0.694,0.099,16.79,106.2124,15.18,16.1,35.65,0,110.5,13.33,15.98,149.8
"2010-10-22 01:48:30",268358,8.53,188.4,0.37,0.139,16.82,106.2056,15.16,16.08,35.81,0,110.5,13.33,15.96,150.4